�N����,�����b,���ԉ��x,���Ԏ��x,��󒲎�,����,�����W
2002/11/1,0:00:00,19.1 ,57.4 ,15.5 ,14.8 ,18.0 
2002/11/1,0:10:00,19.1 ,58.4 ,15.4 ,14.8 ,18.0 
2002/11/1,0:20:00,19.0 ,58.7 ,15.4 ,14.8 ,18.0 
2002/11/1,0:30:00,19.0 ,58.7 ,15.4 ,14.8 ,18.0 
2002/11/1,0:40:00,18.9 ,59.1 ,15.4 ,14.9 ,18.0 
2002/11/1,0:50:00,18.9 ,58.6 ,15.4 ,14.9 ,17.9 
2002/11/1,1:00:00,18.8 ,58.3 ,15.3 ,14.9 ,17.9 
2002/11/1,1:10:00,18.8 ,58.2 ,15.3 ,15.0 ,17.8 
2002/11/1,1:20:00,18.8 ,57.9 ,15.3 ,15.0 ,17.8 
2002/11/1,1:30:00,18.7 ,57.8 ,15.3 ,15.0 ,17.8 
2002/11/1,1:40:00,18.7 ,57.7 ,15.3 ,15.1 ,17.8 
2002/11/1,1:50:00,18.6 ,57.7 ,15.3 ,15.1 ,17.7 
2002/11/1,2:00:00,18.6 ,57.5 ,15.3 ,15.1 ,17.7 
2002/11/1,2:10:00,18.6 ,57.5 ,15.3 ,15.2 ,17.6 
2002/11/1,2:20:00,18.5 ,57.3 ,15.3 ,15.2 ,17.6 
2002/11/1,2:30:00,18.5 ,57.3 ,15.3 ,15.3 ,17.5 
2002/11/1,2:40:00,18.5 ,57.3 ,15.3 ,15.3 ,17.5 
2002/11/1,2:50:00,18.4 ,57.2 ,15.3 ,15.3 ,17.5 
2002/11/1,3:00:00,18.4 ,57.3 ,15.3 ,15.3 ,17.4 
2002/11/1,3:10:00,18.4 ,57.4 ,15.3 ,15.4 ,17.4 
2002/11/1,3:20:00,18.4 ,57.5 ,15.2 ,15.4 ,17.4 
2002/11/1,3:30:00,18.3 ,58.0 ,15.2 ,15.4 ,17.3 
2002/11/1,3:40:00,18.3 ,58.2 ,15.2 ,15.5 ,17.3 
2002/11/1,3:50:00,18.3 ,58.9 ,15.2 ,15.5 ,17.2 
2002/11/1,4:00:00,18.2 ,58.9 ,15.2 ,15.5 ,17.2 
2002/11/1,4:10:00,18.2 ,59.2 ,15.2 ,15.6 ,17.2 
2002/11/1,4:20:00,18.2 ,59.0 ,15.2 ,15.6 ,17.2 
2002/11/1,4:30:00,18.2 ,59.6 ,15.2 ,15.6 ,17.2 
2002/11/1,4:40:00,18.1 ,59.5 ,15.2 ,15.6 ,17.1 
2002/11/1,4:50:00,18.1 ,60.0 ,15.2 ,15.7 ,17.1 
2002/11/1,5:00:00,18.1 ,59.5 ,15.2 ,15.7 ,17.1 
2002/11/1,5:10:00,18.1 ,60.1 ,15.1 ,15.7 ,17.1 
2002/11/1,5:20:00,18.1 ,60.0 ,15.2 ,15.8 ,17.0 
2002/11/1,5:30:00,18.1 ,59.9 ,15.2 ,15.8 ,17.0 
2002/11/1,5:40:00,18.1 ,60.8 ,15.2 ,15.8 ,17.0 
2002/11/1,5:50:00,18.1 ,60.6 ,15.2 ,15.8 ,17.1 
2002/11/1,6:00:00,18.1 ,60.4 ,15.2 ,15.8 ,17.1 
2002/11/1,6:10:00,18.1 ,60.5 ,15.1 ,15.9 ,17.1 
2002/11/1,6:20:00,18.1 ,60.6 ,15.1 ,15.9 ,17.1 
2002/11/1,6:30:00,18.1 ,60.4 ,15.1 ,15.9 ,17.1 
2002/11/1,6:40:00,18.1 ,60.5 ,15.1 ,15.9 ,17.2 
2002/11/1,6:50:00,18.1 ,60.6 ,15.1 ,16.0 ,17.2 
2002/11/1,7:00:00,18.1 ,60.2 ,15.1 ,16.0 ,17.2 
2002/11/1,7:10:00,18.1 ,60.3 ,15.1 ,16.0 ,17.2 
2002/11/1,7:20:00,18.2 ,60.4 ,15.1 ,16.0 ,17.2 
2002/11/1,7:30:00,18.2 ,60.4 ,15.1 ,13.9 ,17.2 
2002/11/1,7:40:00,18.2 ,60.8 ,15.1 ,14.2 ,17.2 
2002/11/1,7:50:00,18.3 ,60.6 ,15.1 ,12.8 ,17.3 
2002/11/1,8:00:00,18.4 ,60.4 ,15.1 ,12.8 ,17.5 
2002/11/1,8:10:00,18.4 ,60.1 ,15.1 ,12.9 ,17.5 
2002/11/1,8:20:00,18.5 ,61.1 ,15.2 ,13.1 ,17.5 
2002/11/1,8:30:00,18.5 ,61.1 ,15.2 ,12.8 ,17.6 
2002/11/1,8:40:00,18.5 ,60.6 ,15.2 ,12.9 ,17.6 
2002/11/1,8:50:00,18.6 ,60.6 ,15.2 ,12.9 ,17.7 
2002/11/1,9:00:00,18.7 ,60.7 ,15.2 ,13.0 ,17.7 
2002/11/1,9:10:00,18.7 ,60.3 ,15.3 ,13.1 ,17.7 
2002/11/1,9:20:00,18.7 ,60.2 ,15.3 ,13.1 ,17.8 
2002/11/1,9:30:00,18.8 ,59.9 ,15.3 ,13.2 ,17.8 
2002/11/1,9:40:00,18.9 ,59.3 ,15.3 ,13.2 ,17.8 
2002/11/1,9:50:00,18.9 ,59.4 ,15.3 ,13.3 ,17.8 
2002/11/1,10:00:00,18.9 ,59.6 ,15.4 ,13.3 ,17.8 
2002/11/1,10:10:00,18.9 ,59.5 ,15.4 ,13.4 ,17.9 
2002/11/1,10:20:00,19.0 ,59.6 ,15.4 ,13.0 ,17.9 
2002/11/1,10:30:00,19.0 ,59.6 ,15.4 ,13.1 ,18.0 
2002/11/1,10:40:00,19.0 ,59.5 ,15.4 ,13.1 ,18.0 
2002/11/1,10:50:00,19.0 ,59.6 ,15.5 ,13.2 ,18.0 
2002/11/1,11:00:00,19.0 ,59.7 ,15.5 ,13.2 ,18.0 
2002/11/1,11:10:00,19.0 ,59.6 ,15.5 ,13.3 ,18.0 
2002/11/1,11:20:00,19.0 ,59.5 ,15.5 ,13.3 ,18.1 
2002/11/1,11:30:00,19.0 ,59.5 ,15.5 ,13.4 ,18.1 
2002/11/1,11:40:00,19.0 ,59.5 ,15.6 ,13.4 ,18.1 
2002/11/1,11:50:00,19.1 ,59.6 ,15.6 ,13.5 ,18.1 
2002/11/1,12:00:00,19.1 ,59.4 ,15.6 ,13.5 ,18.1 
2002/11/1,12:10:00,19.1 ,59.5 ,15.6 ,13.0 ,18.2 
2002/11/1,12:20:00,19.2 ,59.3 ,15.7 ,13.1 ,18.2 
2002/11/1,12:30:00,19.3 ,59.2 ,15.7 ,13.1 ,18.3 
2002/11/1,12:40:00,19.3 ,59.3 ,15.7 ,13.2 ,18.3 
2002/11/1,12:50:00,19.3 ,59.2 ,15.7 ,13.2 ,18.3 
2002/11/1,13:00:00,19.3 ,59.4 ,15.8 ,13.3 ,18.4 
2002/11/1,13:10:00,19.3 ,59.5 ,15.8 ,13.3 ,18.4 
2002/11/1,13:20:00,19.3 ,59.6 ,15.8 ,13.4 ,18.4 
2002/11/1,13:30:00,19.3 ,59.7 ,15.8 ,13.4 ,18.4 
2002/11/1,13:40:00,19.3 ,59.6 ,15.8 ,13.5 ,18.4 
2002/11/1,13:50:00,19.3 ,59.8 ,15.9 ,13.5 ,18.4 
2002/11/1,14:00:00,19.3 ,59.9 ,15.9 ,13.6 ,18.4 
2002/11/1,14:10:00,19.3 ,60.2 ,15.9 ,13.6 ,18.4 
2002/11/1,14:20:00,19.3 ,60.3 ,15.9 ,13.7 ,18.4 
2002/11/1,14:30:00,19.3 ,60.3 ,15.9 ,13.7 ,18.4 
2002/11/1,14:40:00,19.3 ,60.4 ,15.9 ,13.8 ,18.4 
2002/11/1,14:50:00,19.3 ,60.5 ,16.0 ,13.8 ,18.5 
2002/11/1,15:00:00,19.3 ,60.4 ,16.0 ,13.9 ,18.4 
2002/11/1,15:10:00,19.3 ,60.6 ,16.0 ,13.9 ,18.4 
2002/11/1,15:20:00,19.3 ,61.0 ,16.0 ,13.0 ,18.4 
2002/11/1,15:30:00,19.3 ,60.7 ,16.0 ,13.1 ,18.4 
2002/11/1,15:40:00,19.3 ,60.8 ,16.0 ,13.2 ,18.4 
2002/11/1,15:50:00,19.3 ,60.9 ,16.0 ,13.2 ,18.5 
2002/11/1,16:00:00,19.3 ,60.9 ,16.0 ,13.3 ,18.4 
2002/11/1,16:10:00,19.3 ,60.8 ,16.1 ,13.3 ,18.4 
2002/11/1,16:20:00,19.3 ,61.1 ,16.1 ,12.9 ,18.4 
2002/11/1,16:30:00,19.3 ,60.8 ,16.1 ,12.9 ,18.5 
2002/11/1,16:40:00,19.3 ,60.9 ,16.1 ,13.0 ,18.9 
2002/11/1,16:50:00,19.3 ,61.0 ,16.1 ,13.0 ,18.9 
2002/11/1,17:00:00,19.4 ,61.1 ,16.1 ,13.1 ,18.8 
2002/11/1,17:10:00,19.3 ,61.2 ,16.1 ,13.2 ,18.8 
2002/11/1,17:20:00,19.4 ,61.2 ,16.1 ,13.2 ,18.7 
2002/11/1,17:30:00,19.4 ,61.3 ,16.1 ,13.3 ,18.7 
2002/11/1,17:40:00,19.4 ,61.3 ,16.1 ,13.3 ,18.7 
2002/11/1,17:50:00,19.4 ,61.5 ,16.1 ,13.4 ,18.7 
2002/11/1,18:00:00,19.4 ,61.5 ,16.1 ,13.4 ,18.7 
2002/11/1,18:10:00,19.4 ,61.3 ,16.1 ,13.5 ,19.1 
2002/11/1,18:20:00,19.4 ,61.6 ,16.1 ,13.5 ,19.5 
2002/11/1,18:30:00,19.5 ,61.3 ,16.1 ,13.6 ,19.4 
2002/11/1,18:40:00,19.5 ,61.1 ,16.1 ,13.6 ,19.3 
2002/11/1,18:50:00,19.5 ,61.1 ,16.1 ,13.0 ,19.2 
2002/11/1,19:00:00,19.5 ,60.8 ,16.2 ,13.1 ,19.1 
2002/11/1,19:10:00,19.5 ,60.8 ,16.2 ,13.1 ,19.0 
2002/11/1,19:20:00,19.5 ,60.8 ,16.2 ,13.2 ,19.0 
2002/11/1,19:30:00,19.5 ,60.8 ,16.2 ,13.3 ,18.9 
2002/11/1,19:40:00,19.4 ,60.9 ,16.2 ,13.3 ,18.8 
2002/11/1,19:50:00,19.4 ,60.9 ,16.2 ,13.4 ,18.7 
2002/11/1,20:00:00,19.4 ,60.8 ,16.2 ,13.4 ,18.7 
2002/11/1,20:10:00,19.4 ,60.8 ,16.2 ,13.5 ,18.7 
2002/11/1,20:20:00,19.4 ,60.8 ,16.2 ,13.5 ,18.6 
2002/11/1,20:30:00,19.3 ,60.7 ,16.2 ,13.6 ,18.6 
2002/11/1,20:40:00,19.3 ,60.7 ,16.2 ,13.6 ,18.5 
2002/11/1,20:50:00,19.3 ,60.7 ,16.2 ,13.7 ,18.5 
2002/11/1,21:00:00,19.3 ,60.6 ,16.2 ,13.7 ,18.5 
2002/11/1,21:10:00,19.3 ,60.5 ,16.2 ,13.8 ,18.5 
2002/11/1,21:20:00,19.3 ,60.5 ,16.2 ,13.8 ,18.5 
2002/11/1,21:30:00,19.3 ,60.5 ,16.2 ,15.6 ,18.5 
2002/11/1,21:40:00,19.2 ,60.5 ,16.2 ,15.7 ,18.4 
2002/11/1,21:50:00,19.2 ,60.3 ,16.2 ,15.7 ,18.4 
2002/11/1,22:00:00,19.2 ,60.4 ,16.2 ,15.7 ,18.4 
2002/11/1,22:10:00,19.2 ,60.4 ,16.2 ,15.7 ,18.4 
2002/11/1,22:20:00,19.3 ,61.3 ,16.2 ,15.8 ,18.3 
2002/11/1,22:30:00,19.3 ,61.9 ,16.2 ,15.8 ,18.3 
2002/11/1,22:40:00,19.3 ,62.7 ,16.2 ,15.8 ,18.3 
2002/11/1,22:50:00,19.3 ,62.1 ,16.2 ,15.8 ,18.3 
2002/11/1,23:00:00,19.3 ,61.8 ,16.2 ,15.9 ,18.7 
2002/11/1,23:10:00,19.3 ,61.8 ,16.2 ,15.9 ,18.9 
2002/11/1,23:20:00,19.3 ,61.6 ,16.2 ,15.9 ,18.9 
2002/11/1,23:30:00,19.3 ,61.4 ,16.2 ,15.9 ,18.9 
2002/11/1,23:40:00,19.3 ,61.1 ,16.2 ,14.1 ,18.9 
2002/11/1,23:50:00,19.3 ,60.9 ,16.2 ,12.9 ,18.8 
2002/11/2,0:00:00,19.2 ,60.8 ,16.1 ,13.0 ,18.7 
2002/11/2,0:10:00,19.2 ,60.5 ,16.1 ,13.0 ,18.6 
2002/11/2,0:20:00,19.2 ,60.4 ,16.1 ,13.1 ,18.5 
2002/11/2,0:30:00,19.2 ,60.1 ,16.1 ,13.2 ,18.5 
2002/11/2,0:40:00,19.1 ,60.2 ,16.1 ,13.2 ,18.4 
2002/11/2,0:50:00,19.1 ,60.4 ,16.1 ,13.3 ,18.4 
2002/11/2,1:00:00,19.1 ,60.7 ,16.1 ,13.3 ,18.3 
2002/11/2,1:10:00,19.1 ,61.3 ,16.0 ,13.4 ,18.2 
2002/11/2,1:20:00,19.1 ,61.0 ,16.0 ,13.4 ,18.2 
2002/11/2,1:30:00,19.0 ,61.3 ,16.0 ,13.5 ,18.1 
2002/11/2,1:40:00,19.0 ,61.0 ,16.0 ,13.5 ,18.1 
2002/11/2,1:50:00,19.0 ,61.3 ,15.9 ,13.6 ,18.1 
2002/11/2,2:00:00,19.0 ,61.2 ,15.9 ,13.6 ,18.0 
2002/11/2,2:10:00,18.9 ,61.2 ,15.9 ,13.7 ,17.9 
2002/11/2,2:20:00,18.9 ,61.4 ,15.9 ,13.7 ,17.9 
2002/11/2,2:30:00,18.9 ,61.2 ,15.8 ,13.8 ,17.9 
2002/11/2,2:40:00,18.9 ,61.2 ,15.8 ,13.8 ,17.9 
2002/11/2,2:50:00,18.9 ,60.9 ,15.8 ,13.9 ,17.9 
2002/11/2,3:00:00,18.9 ,60.9 ,15.8 ,13.9 ,17.9 
2002/11/2,3:10:00,18.9 ,60.7 ,15.7 ,13.9 ,17.8 
2002/11/2,3:20:00,18.9 ,60.7 ,15.7 ,14.0 ,17.8 
2002/11/2,3:30:00,18.9 ,60.8 ,15.7 ,14.0 ,17.8 
2002/11/2,3:40:00,18.9 ,60.6 ,15.7 ,14.1 ,17.8 
2002/11/2,3:50:00,18.9 ,60.1 ,15.7 ,14.1 ,17.8 
2002/11/2,4:00:00,18.9 ,60.1 ,15.6 ,14.2 ,17.8 
2002/11/2,4:10:00,18.9 ,60.2 ,15.6 ,14.2 ,17.8 
2002/11/2,4:20:00,18.9 ,59.9 ,15.6 ,14.2 ,17.9 
2002/11/2,4:30:00,18.9 ,59.7 ,15.6 ,14.3 ,17.9 
2002/11/2,4:40:00,18.9 ,59.6 ,15.6 ,14.3 ,17.8 
2002/11/2,4:50:00,19.0 ,59.5 ,15.5 ,14.3 ,17.9 
2002/11/2,5:00:00,19.0 ,59.2 ,15.5 ,14.4 ,17.9 
2002/11/2,5:10:00,19.0 ,58.8 ,15.5 ,14.4 ,17.9 
2002/11/2,5:20:00,19.0 ,58.7 ,15.5 ,14.5 ,17.9 
2002/11/2,5:30:00,19.0 ,58.7 ,15.5 ,14.5 ,17.9 
2002/11/2,5:40:00,19.1 ,58.6 ,15.5 ,14.5 ,17.9 
2002/11/2,5:50:00,19.1 ,58.4 ,15.5 ,13.5 ,18.0 
2002/11/2,6:00:00,19.2 ,58.3 ,15.5 ,13.6 ,18.1 
2002/11/2,6:10:00,19.2 ,58.1 ,15.4 ,13.6 ,18.1 
2002/11/2,6:20:00,19.2 ,57.8 ,15.4 ,13.7 ,18.1 
2002/11/2,6:30:00,19.3 ,57.6 ,15.4 ,13.7 ,18.1 
2002/11/2,6:40:00,19.4 ,57.3 ,15.4 ,13.7 ,18.2 
2002/11/2,6:50:00,19.4 ,57.1 ,15.4 ,13.8 ,18.2 
2002/11/2,7:00:00,19.5 ,57.0 ,15.4 ,13.9 ,18.2 
2002/11/2,7:10:00,19.5 ,56.7 ,15.4 ,13.9 ,18.2 
2002/11/2,7:20:00,19.6 ,56.5 ,15.4 ,14.0 ,18.3 
2002/11/2,7:30:00,19.7 ,56.2 ,15.4 ,14.0 ,18.3 
2002/11/2,7:40:00,19.7 ,56.1 ,15.4 ,14.1 ,18.4 
2002/11/2,7:50:00,19.8 ,55.7 ,15.4 ,14.2 ,18.5 
2002/11/2,8:00:00,19.9 ,55.6 ,15.4 ,14.2 ,18.5 
2002/11/2,8:10:00,19.9 ,55.4 ,15.4 ,14.3 ,18.6 
2002/11/2,8:20:00,20.1 ,55.4 ,15.4 ,14.3 ,18.6 
2002/11/2,8:30:00,20.3 ,54.9 ,15.4 ,14.4 ,18.8 
2002/11/2,8:40:00,20.3 ,54.9 ,15.4 ,13.3 ,18.8 
2002/11/2,8:50:00,20.3 ,55.2 ,15.4 ,13.3 ,18.9 
2002/11/2,9:00:00,20.8 ,54.2 ,15.4 ,13.4 ,19.0 
2002/11/2,9:10:00,20.8 ,54.4 ,15.4 ,13.5 ,19.1 
2002/11/2,9:20:00,21.0 ,54.1 ,15.4 ,12.7 ,19.3 
2002/11/2,9:30:00,21.0 ,54.2 ,15.5 ,12.8 ,19.4 
2002/11/2,9:40:00,21.1 ,53.9 ,15.5 ,12.8 ,19.4 
2002/11/2,9:50:00,21.3 ,53.2 ,15.5 ,12.9 ,19.5 
2002/11/2,10:00:00,21.5 ,53.1 ,15.5 ,12.9 ,19.7 
2002/11/2,10:10:00,21.5 ,53.3 ,15.5 ,12.5 ,19.9 
2002/11/2,10:20:00,21.8 ,52.6 ,15.6 ,12.6 ,20.3 
2002/11/2,10:30:00,21.9 ,52.5 ,15.6 ,12.6 ,20.5 
2002/11/2,10:40:00,21.9 ,52.6 ,15.6 ,12.7 ,20.5 
2002/11/2,10:50:00,21.8 ,52.7 ,15.6 ,12.8 ,20.4 
2002/11/2,11:00:00,22.3 ,51.4 ,15.6 ,12.8 ,20.6 
2002/11/2,11:10:00,22.5 ,51.0 ,15.6 ,12.9 ,21.2 
2002/11/2,11:20:00,22.7 ,50.9 ,15.7 ,14.0 ,21.4 
2002/11/2,11:30:00,22.6 ,51.4 ,15.7 ,14.0 ,21.4 
2002/11/2,11:40:00,22.5 ,51.6 ,15.7 ,14.1 ,21.3 
2002/11/2,11:50:00,22.5 ,51.8 ,15.8 ,14.1 ,21.5 
2002/11/2,12:00:00,22.6 ,51.7 ,15.8 ,14.2 ,21.8 
2002/11/2,12:10:00,22.6 ,51.6 ,15.8 ,14.2 ,21.8 
2002/11/2,12:20:00,22.6 ,51.7 ,15.8 ,14.3 ,21.6 
2002/11/2,12:30:00,22.6 ,51.9 ,15.8 ,14.3 ,21.4 
2002/11/2,12:40:00,22.6 ,51.8 ,15.9 ,14.4 ,21.4 
2002/11/2,12:50:00,22.6 ,51.8 ,15.9 ,14.4 ,21.4 
2002/11/2,13:00:00,22.6 ,51.6 ,15.9 ,14.5 ,21.4 
2002/11/2,13:10:00,22.7 ,51.5 ,15.9 ,14.5 ,21.3 
2002/11/2,13:20:00,22.6 ,50.9 ,16.0 ,14.6 ,21.6 
2002/11/2,13:30:00,22.6 ,50.7 ,16.0 ,14.6 ,22.8 
2002/11/2,13:40:00,22.7 ,50.9 ,16.0 ,14.7 ,23.0 
2002/11/2,13:50:00,22.7 ,50.9 ,16.0 ,14.7 ,22.6 
2002/11/2,14:00:00,22.7 ,50.9 ,16.1 ,14.8 ,22.2 
2002/11/2,14:10:00,22.6 ,50.9 ,16.1 ,13.3 ,21.9 
2002/11/2,14:20:00,22.6 ,50.9 ,16.1 ,13.4 ,21.6 
2002/11/2,14:30:00,22.5 ,51.0 ,16.1 ,13.5 ,21.4 
2002/11/2,14:40:00,22.5 ,51.3 ,16.1 ,12.6 ,21.3 
2002/11/2,14:50:00,22.4 ,51.5 ,16.1 ,12.7 ,21.0 
2002/11/2,15:00:00,22.4 ,51.4 ,16.1 ,12.8 ,20.8 
2002/11/2,15:10:00,22.4 ,51.5 ,16.1 ,12.9 ,20.6 
2002/11/2,15:20:00,22.3 ,51.7 ,16.1 ,12.9 ,20.6 
2002/11/2,15:30:00,22.3 ,51.6 ,16.1 ,13.0 ,20.6 
2002/11/2,15:40:00,22.3 ,51.8 ,16.1 ,13.1 ,20.8 
2002/11/2,15:50:00,22.2 ,51.8 ,16.1 ,13.2 ,20.6 
2002/11/2,16:00:00,22.2 ,51.8 ,16.1 ,13.2 ,20.4 
2002/11/2,16:10:00,22.2 ,51.7 ,16.1 ,13.0 ,20.3 
2002/11/2,16:20:00,22.1 ,51.6 ,16.1 ,12.4 ,20.3 
2002/11/2,16:30:00,22.1 ,51.8 ,16.2 ,12.5 ,20.2 
2002/11/2,16:40:00,22.1 ,52.1 ,16.2 ,12.4 ,20.2 
2002/11/2,16:50:00,22.1 ,51.9 ,16.2 ,12.5 ,20.1 
2002/11/2,17:00:00,22.0 ,51.7 ,16.2 ,13.0 ,20.0 
2002/11/2,17:10:00,22.0 ,51.8 ,16.2 ,13.1 ,20.0 
2002/11/2,17:20:00,22.0 ,51.7 ,16.2 ,13.2 ,20.0 
2002/11/2,17:30:00,21.9 ,51.8 ,16.2 ,13.2 ,20.0 
2002/11/2,17:40:00,21.9 ,51.9 ,16.1 ,13.3 ,20.0 
2002/11/2,17:50:00,21.9 ,51.8 ,16.1 ,13.4 ,19.9 
2002/11/2,18:00:00,21.8 ,51.8 ,16.1 ,13.4 ,19.9 
2002/11/2,18:10:00,21.8 ,51.6 ,16.1 ,13.5 ,19.9 
2002/11/2,18:20:00,21.8 ,51.5 ,16.1 ,13.6 ,19.9 
2002/11/2,18:30:00,21.7 ,51.1 ,16.1 ,13.6 ,19.9 
2002/11/2,18:40:00,21.7 ,50.9 ,16.1 ,13.7 ,20.2 
2002/11/2,18:50:00,21.6 ,50.5 ,16.1 ,13.7 ,22.0 
2002/11/2,19:00:00,21.6 ,50.2 ,16.1 ,13.8 ,24.3 
2002/11/2,19:10:00,21.6 ,50.1 ,16.0 ,13.9 ,25.2 
2002/11/2,19:20:00,21.6 ,50.4 ,16.0 ,13.9 ,24.2 
2002/11/2,19:30:00,21.6 ,50.5 ,16.0 ,14.0 ,23.3 
2002/11/2,19:40:00,21.6 ,50.6 ,16.0 ,14.0 ,22.7 
2002/11/2,19:50:00,21.6 ,50.9 ,16.0 ,14.1 ,22.1 
2002/11/2,20:00:00,21.6 ,50.8 ,16.0 ,14.1 ,21.6 
2002/11/2,20:10:00,21.6 ,50.9 ,16.0 ,14.2 ,21.1 
2002/11/2,20:20:00,21.5 ,50.9 ,15.9 ,14.2 ,20.7 
2002/11/2,20:30:00,21.5 ,51.0 ,15.9 ,14.3 ,20.4 
2002/11/2,20:40:00,21.5 ,51.0 ,15.9 ,14.3 ,20.1 
2002/11/2,20:50:00,21.4 ,51.2 ,15.9 ,14.4 ,19.9 
2002/11/2,21:00:00,21.4 ,51.0 ,15.9 ,14.4 ,19.8 
2002/11/2,21:10:00,21.3 ,51.1 ,15.9 ,14.5 ,19.7 
2002/11/2,21:20:00,21.3 ,51.1 ,15.9 ,14.5 ,19.5 
2002/11/2,21:30:00,21.3 ,51.2 ,15.9 ,14.5 ,19.4 
2002/11/2,21:40:00,21.2 ,51.2 ,15.9 ,14.6 ,19.3 
2002/11/2,21:50:00,21.2 ,51.1 ,15.9 ,14.6 ,19.2 
2002/11/2,22:00:00,21.2 ,51.2 ,15.9 ,14.7 ,19.2 
2002/11/2,22:10:00,21.1 ,51.0 ,15.8 ,14.7 ,19.2 
2002/11/2,22:20:00,21.1 ,50.9 ,15.8 ,15.9 ,19.1 
2002/11/2,22:30:00,21.1 ,51.0 ,15.8 ,15.9 ,19.2 
2002/11/2,22:40:00,21.0 ,51.3 ,15.8 ,15.9 ,19.1 
2002/11/2,22:50:00,21.0 ,51.4 ,15.8 ,16.0 ,19.1 
2002/11/2,23:00:00,21.0 ,51.8 ,15.8 ,16.0 ,19.1 
2002/11/2,23:10:00,21.0 ,51.7 ,15.8 ,16.0 ,19.0 
2002/11/2,23:20:00,21.0 ,51.7 ,15.8 ,14.0 ,19.0 
2002/11/2,23:30:00,20.9 ,51.7 ,15.8 ,14.1 ,18.9 
2002/11/2,23:40:00,20.9 ,51.6 ,15.8 ,14.1 ,18.8 
2002/11/2,23:50:00,20.9 ,52.1 ,15.8 ,14.1 ,18.8 
2002/11/3,0:00:00,20.9 ,52.5 ,15.7 ,14.2 ,18.9 
2002/11/3,0:10:00,20.9 ,52.2 ,15.7 ,14.3 ,18.9 
2002/11/3,0:20:00,20.9 ,52.2 ,15.7 ,14.4 ,19.5 
2002/11/3,0:30:00,20.9 ,52.2 ,15.7 ,14.4 ,19.9 
2002/11/3,0:40:00,20.9 ,52.3 ,15.7 ,14.5 ,20.0 
2002/11/3,0:50:00,20.9 ,52.4 ,15.7 ,14.6 ,20.0 
2002/11/3,1:00:00,20.9 ,52.2 ,15.6 ,14.6 ,19.9 
2002/11/3,1:10:00,20.9 ,52.4 ,15.6 ,14.7 ,19.8 
2002/11/3,1:20:00,20.9 ,52.4 ,15.6 ,14.8 ,19.7 
2002/11/3,1:30:00,20.9 ,52.5 ,15.6 ,14.8 ,19.6 
2002/11/3,1:40:00,20.8 ,52.8 ,15.6 ,14.9 ,19.5 
2002/11/3,1:50:00,20.8 ,53.0 ,15.6 ,14.9 ,19.4 
2002/11/3,2:00:00,20.8 ,53.0 ,15.6 ,15.0 ,19.4 
2002/11/3,2:10:00,20.8 ,53.2 ,15.6 ,15.0 ,19.3 
2002/11/3,2:20:00,20.8 ,53.0 ,15.6 ,15.1 ,19.2 
2002/11/3,2:30:00,20.7 ,53.2 ,15.6 ,15.2 ,19.0 
2002/11/3,2:40:00,20.7 ,53.1 ,15.6 ,15.2 ,19.0 
2002/11/3,2:50:00,20.7 ,52.9 ,15.6 ,15.3 ,19.0 
2002/11/3,3:00:00,20.7 ,52.7 ,15.6 ,13.1 ,18.9 
2002/11/3,3:10:00,20.7 ,52.3 ,15.6 ,13.2 ,18.8 
2002/11/3,3:20:00,20.6 ,52.1 ,15.6 ,13.2 ,18.7 
2002/11/3,3:30:00,20.6 ,52.2 ,15.5 ,13.3 ,18.7 
2002/11/3,3:40:00,20.6 ,52.0 ,15.5 ,13.4 ,18.7 
2002/11/3,3:50:00,20.5 ,52.0 ,15.5 ,13.5 ,18.7 
2002/11/3,4:00:00,20.5 ,52.0 ,15.5 ,13.6 ,18.7 
2002/11/3,4:10:00,20.5 ,52.0 ,15.5 ,13.7 ,18.6 
2002/11/3,4:20:00,20.4 ,52.0 ,15.5 ,13.7 ,18.5 
2002/11/3,4:30:00,20.4 ,51.8 ,15.5 ,13.8 ,18.5 
2002/11/3,4:40:00,20.4 ,51.7 ,15.5 ,13.9 ,18.5 
2002/11/3,4:50:00,20.3 ,51.8 ,15.5 ,14.0 ,18.5 
2002/11/3,5:00:00,20.3 ,51.8 ,15.5 ,14.1 ,18.5 
2002/11/3,5:10:00,20.3 ,51.6 ,15.4 ,14.1 ,18.4 
2002/11/3,5:20:00,20.3 ,51.4 ,15.4 ,14.2 ,18.4 
2002/11/3,5:30:00,20.2 ,51.5 ,15.4 ,14.3 ,18.3 
2002/11/3,5:40:00,20.2 ,51.4 ,15.4 ,14.3 ,18.3 
2002/11/3,5:50:00,20.2 ,51.6 ,15.4 ,14.4 ,18.3 
2002/11/3,6:00:00,20.2 ,51.3 ,15.4 ,14.4 ,18.3 
2002/11/3,6:10:00,20.2 ,51.4 ,15.4 ,14.5 ,18.3 
2002/11/3,6:20:00,20.2 ,51.3 ,15.3 ,14.6 ,18.4 
2002/11/3,6:30:00,20.2 ,51.0 ,15.3 ,14.6 ,18.4 
2002/11/3,6:40:00,20.2 ,51.0 ,15.3 ,14.7 ,18.4 
2002/11/3,6:50:00,20.3 ,51.0 ,15.3 ,14.7 ,18.3 
2002/11/3,7:00:00,20.3 ,50.8 ,15.3 ,14.8 ,18.3 
2002/11/3,7:10:00,20.3 ,50.9 ,15.3 ,14.8 ,18.3 
2002/11/3,7:20:00,20.4 ,50.9 ,15.2 ,14.9 ,18.3 
2002/11/3,7:30:00,20.4 ,50.7 ,15.2 ,14.9 ,18.4 
2002/11/3,7:40:00,20.4 ,50.6 ,15.2 ,15.0 ,18.3 
2002/11/3,7:50:00,20.5 ,50.8 ,15.2 ,15.0 ,18.3 
2002/11/3,8:00:00,20.5 ,50.6 ,15.2 ,15.1 ,18.2 
2002/11/3,8:10:00,20.6 ,50.6 ,15.2 ,15.1 ,18.3 
2002/11/3,8:20:00,20.6 ,50.9 ,15.2 ,12.1 ,18.4 
2002/11/3,8:30:00,20.7 ,50.6 ,15.2 ,12.2 ,18.5 
2002/11/3,8:40:00,20.7 ,51.0 ,15.2 ,12.2 ,18.4 
2002/11/3,8:50:00,20.7 ,51.1 ,15.2 ,12.3 ,18.4 
2002/11/3,9:00:00,20.8 ,50.9 ,15.2 ,12.4 ,18.4 
2002/11/3,9:10:00,20.8 ,51.0 ,15.2 ,12.5 ,18.5 
2002/11/3,9:20:00,20.9 ,51.2 ,15.2 ,12.6 ,18.6 
2002/11/3,9:30:00,20.9 ,51.1 ,15.2 ,12.7 ,18.6 
2002/11/3,9:40:00,20.9 ,51.0 ,15.2 ,12.8 ,18.6 
2002/11/3,9:50:00,20.9 ,51.1 ,15.2 ,10.8 ,18.7 
2002/11/3,10:00:00,20.9 ,51.0 ,15.2 ,10.9 ,19.2 
2002/11/3,10:10:00,20.9 ,51.2 ,15.2 ,11.0 ,19.2 
2002/11/3,10:20:00,21.0 ,51.0 ,15.2 ,11.1 ,19.2 
2002/11/3,10:30:00,21.0 ,51.1 ,15.2 ,10.3 ,19.1 
2002/11/3,10:40:00,21.0 ,51.1 ,15.2 ,10.4 ,19.0 
2002/11/3,10:50:00,21.1 ,51.3 ,15.2 ,10.5 ,19.0 
2002/11/3,11:00:00,21.0 ,51.3 ,15.2 ,10.6 ,19.0 
2002/11/3,11:10:00,21.0 ,51.2 ,15.2 ,10.7 ,19.0 
2002/11/3,11:20:00,21.0 ,51.3 ,15.2 ,10.9 ,19.0 
2002/11/3,11:30:00,21.0 ,51.1 ,15.2 ,11.0 ,18.9 
2002/11/3,11:40:00,20.9 ,50.5 ,15.2 ,11.1 ,18.9 
2002/11/3,11:50:00,20.9 ,50.7 ,15.2 ,11.2 ,18.8 
2002/11/3,12:00:00,20.9 ,50.9 ,15.2 ,11.3 ,18.9 
2002/11/3,12:10:00,20.9 ,50.9 ,15.2 ,11.3 ,18.8 
2002/11/3,12:20:00,20.9 ,50.9 ,15.2 ,11.4 ,18.7 
2002/11/3,12:30:00,20.8 ,50.8 ,15.2 ,11.5 ,18.7 
2002/11/3,12:40:00,20.8 ,50.9 ,15.2 ,11.6 ,18.6 
2002/11/3,12:50:00,20.9 ,50.7 ,15.2 ,11.7 ,18.7 
2002/11/3,13:00:00,20.8 ,50.8 ,15.2 ,11.7 ,18.7 
2002/11/3,13:10:00,20.8 ,50.8 ,15.3 ,11.8 ,18.7 
2002/11/3,13:20:00,20.8 ,50.8 ,15.2 ,11.9 ,18.6 
2002/11/3,13:30:00,20.7 ,50.7 ,15.2 ,11.9 ,18.6 
2002/11/3,13:40:00,20.7 ,50.7 ,15.2 ,12.0 ,18.6 
2002/11/3,13:50:00,20.7 ,50.7 ,15.2 ,12.1 ,18.6 
2002/11/3,14:00:00,20.7 ,50.6 ,15.2 ,12.2 ,18.6 
2002/11/3,14:10:00,20.7 ,50.6 ,15.2 ,12.2 ,18.5 
2002/11/3,14:20:00,20.7 ,50.6 ,15.2 ,12.3 ,18.5 
2002/11/3,14:30:00,20.7 ,50.7 ,15.2 ,12.4 ,18.5 
2002/11/3,14:40:00,20.6 ,50.8 ,15.2 ,12.4 ,18.6 
2002/11/3,14:50:00,20.6 ,50.8 ,15.2 ,12.5 ,18.5 
2002/11/3,15:00:00,20.6 ,50.8 ,15.2 ,12.6 ,18.5 
2002/11/3,15:10:00,20.6 ,50.8 ,15.2 ,12.6 ,18.4 
2002/11/3,15:20:00,20.6 ,50.9 ,15.2 ,12.7 ,18.4 
2002/11/3,15:30:00,20.5 ,51.0 ,15.2 ,12.7 ,18.5 
2002/11/3,15:40:00,20.5 ,51.0 ,15.2 ,12.8 ,18.5 
2002/11/3,15:50:00,20.5 ,51.0 ,15.2 ,12.9 ,18.5 
2002/11/3,16:00:00,20.5 ,51.0 ,15.2 ,12.9 ,18.4 
2002/11/3,16:10:00,20.4 ,50.9 ,15.2 ,13.0 ,18.4 
2002/11/3,16:20:00,20.4 ,50.9 ,15.2 ,13.0 ,18.4 
2002/11/3,16:30:00,20.4 ,50.9 ,15.2 ,13.1 ,18.5 
2002/11/3,16:40:00,20.4 ,50.9 ,15.2 ,13.1 ,18.4 
2002/11/3,16:50:00,20.3 ,51.0 ,15.2 ,13.2 ,18.3 
2002/11/3,17:00:00,20.3 ,51.0 ,15.2 ,13.2 ,18.3 
2002/11/3,17:10:00,20.3 ,50.9 ,15.2 ,13.3 ,18.3 
2002/11/3,17:20:00,20.2 ,50.6 ,15.2 ,13.3 ,18.4 
2002/11/3,17:30:00,20.3 ,50.8 ,15.2 ,11.0 ,18.4 
2002/11/3,17:40:00,20.3 ,50.8 ,15.2 ,11.1 ,18.3 
2002/11/3,17:50:00,20.4 ,50.8 ,15.2 ,11.2 ,18.3 
2002/11/3,18:00:00,20.4 ,51.0 ,15.2 ,11.2 ,18.4 
2002/11/3,18:10:00,20.4 ,51.0 ,15.1 ,10.6 ,18.5 
2002/11/3,18:20:00,20.4 ,50.8 ,15.1 ,10.7 ,19.0 
2002/11/3,18:30:00,20.6 ,50.9 ,15.1 ,10.8 ,19.0 
2002/11/3,18:40:00,20.6 ,51.3 ,15.1 ,10.9 ,18.8 
2002/11/3,18:50:00,20.6 ,51.5 ,15.1 ,11.0 ,18.6 
2002/11/3,19:00:00,20.6 ,51.1 ,15.0 ,11.0 ,18.6 
2002/11/3,19:10:00,20.6 ,51.3 ,15.0 ,11.1 ,18.6 
2002/11/3,19:20:00,20.5 ,51.1 ,15.0 ,11.2 ,18.5 
2002/11/3,19:30:00,20.5 ,50.7 ,14.9 ,11.3 ,18.5 
2002/11/3,19:40:00,20.5 ,50.7 ,14.9 ,11.3 ,18.5 
2002/11/3,19:50:00,20.5 ,50.6 ,14.9 ,11.4 ,18.4 
2002/11/3,20:00:00,20.5 ,50.6 ,14.9 ,11.5 ,18.5 
2002/11/3,20:10:00,20.4 ,50.9 ,14.9 ,11.6 ,18.7 
2002/11/3,20:20:00,20.3 ,50.6 ,14.9 ,10.0 ,18.7 
2002/11/3,20:30:00,20.3 ,50.9 ,14.9 ,10.1 ,18.6 
2002/11/3,20:40:00,20.3 ,51.3 ,14.9 ,10.2 ,18.6 
2002/11/3,20:50:00,20.3 ,51.5 ,14.9 ,10.3 ,18.5 
2002/11/3,21:00:00,20.2 ,51.3 ,14.9 ,12.1 ,18.4 
2002/11/3,21:10:00,20.2 ,51.1 ,14.9 ,12.1 ,18.4 
2002/11/3,21:20:00,20.1 ,51.4 ,14.9 ,12.2 ,18.3 
2002/11/3,21:30:00,20.1 ,51.3 ,14.9 ,12.2 ,18.1 
2002/11/3,21:40:00,20.1 ,52.1 ,14.9 ,12.3 ,18.0 
2002/11/3,21:50:00,20.1 ,52.3 ,14.9 ,12.4 ,17.9 
2002/11/3,22:00:00,20.1 ,52.4 ,14.9 ,12.4 ,18.0 
2002/11/3,22:10:00,20.1 ,52.6 ,14.9 ,11.6 ,18.1 
2002/11/3,22:20:00,20.1 ,52.5 ,14.9 ,11.6 ,18.1 
2002/11/3,22:30:00,20.1 ,52.8 ,14.9 ,11.7 ,18.0 
2002/11/3,22:40:00,20.0 ,52.5 ,14.9 ,11.8 ,17.9 
2002/11/3,22:50:00,20.0 ,52.5 ,14.9 ,11.9 ,18.0 
2002/11/3,23:00:00,20.0 ,52.4 ,14.9 ,11.9 ,18.0 
2002/11/3,23:10:00,19.9 ,52.8 ,14.9 ,12.0 ,18.0 
2002/11/3,23:20:00,19.9 ,52.5 ,14.9 ,12.1 ,17.9 
2002/11/3,23:30:00,19.9 ,52.4 ,14.9 ,12.2 ,17.8 
2002/11/3,23:40:00,19.9 ,52.4 ,14.9 ,12.3 ,17.6 
2002/11/3,23:50:00,19.9 ,52.3 ,14.9 ,12.6 ,17.8 
2002/11/4,0:00:00,19.9 ,52.3 ,14.9 ,12.7 ,17.9 
2002/11/4,0:10:00,19.8 ,52.8 ,14.9 ,12.7 ,17.9 
2002/11/4,0:20:00,19.8 ,53.2 ,14.9 ,12.8 ,17.9 
2002/11/4,0:30:00,19.8 ,53.8 ,14.9 ,12.8 ,17.8 
2002/11/4,0:40:00,19.8 ,54.6 ,14.9 ,12.9 ,17.7 
2002/11/4,0:50:00,19.8 ,54.6 ,14.9 ,12.9 ,17.8 
2002/11/4,1:00:00,19.7 ,54.8 ,14.9 ,13.0 ,17.8 
2002/11/4,1:10:00,19.7 ,55.1 ,14.9 ,13.0 ,17.8 
2002/11/4,1:20:00,19.7 ,55.5 ,14.9 ,13.1 ,17.8 
2002/11/4,1:30:00,19.6 ,55.5 ,14.8 ,13.1 ,17.7 
2002/11/4,1:40:00,19.6 ,55.6 ,14.8 ,13.2 ,17.7 
2002/11/4,1:50:00,19.6 ,55.5 ,14.8 ,13.2 ,17.8 
2002/11/4,2:00:00,19.6 ,55.7 ,14.8 ,13.3 ,17.8 
2002/11/4,2:10:00,19.5 ,55.8 ,14.8 ,13.3 ,17.7 
2002/11/4,2:20:00,19.5 ,55.7 ,14.8 ,13.4 ,17.7 
2002/11/4,2:30:00,19.5 ,55.7 ,14.8 ,13.4 ,17.6 
2002/11/4,2:40:00,19.5 ,55.6 ,14.8 ,13.5 ,17.7 
2002/11/4,2:50:00,19.4 ,55.5 ,14.8 ,13.5 ,17.7 
2002/11/4,3:00:00,19.4 ,55.7 ,14.8 ,13.6 ,17.6 
2002/11/4,3:10:00,19.4 ,55.5 ,14.8 ,13.6 ,17.6 
2002/11/4,3:20:00,19.4 ,55.4 ,14.8 ,13.6 ,17.5 
2002/11/4,3:30:00,19.3 ,55.4 ,14.7 ,13.7 ,17.5 
2002/11/4,3:40:00,19.3 ,55.3 ,14.7 ,13.7 ,17.5 
2002/11/4,3:50:00,19.3 ,55.2 ,14.7 ,13.8 ,17.5 
2002/11/4,4:00:00,19.2 ,55.1 ,14.7 ,13.8 ,17.4 
2002/11/4,4:10:00,19.2 ,55.0 ,14.7 ,13.9 ,17.4 
2002/11/4,4:20:00,19.2 ,54.9 ,14.7 ,13.9 ,17.4 
2002/11/4,4:30:00,19.2 ,54.7 ,14.7 ,13.9 ,17.4 
2002/11/4,4:40:00,19.2 ,54.7 ,14.7 ,14.0 ,17.5 
2002/11/4,4:50:00,19.2 ,54.5 ,14.7 ,14.0 ,17.5 
2002/11/4,5:00:00,19.2 ,54.5 ,14.7 ,14.1 ,17.5 
2002/11/4,5:10:00,19.2 ,54.3 ,14.7 ,14.1 ,17.5 
2002/11/4,5:20:00,19.2 ,54.1 ,14.7 ,14.1 ,17.4 
2002/11/4,5:30:00,19.2 ,53.9 ,14.7 ,14.2 ,17.4 
2002/11/4,5:40:00,19.2 ,53.9 ,14.6 ,14.2 ,17.4 
2002/11/4,5:50:00,19.2 ,53.8 ,14.6 ,12.2 ,17.4 
2002/11/4,6:00:00,19.2 ,53.7 ,14.6 ,12.2 ,17.5 
2002/11/4,6:10:00,19.2 ,53.7 ,14.6 ,12.2 ,17.5 
2002/11/4,6:20:00,19.2 ,53.6 ,14.6 ,12.3 ,17.6 
2002/11/4,6:30:00,19.3 ,53.5 ,14.6 ,12.3 ,17.6 
2002/11/4,6:40:00,19.3 ,53.5 ,14.6 ,12.4 ,17.5 
2002/11/4,6:50:00,19.3 ,53.3 ,14.6 ,12.5 ,17.5 
2002/11/4,7:00:00,19.4 ,53.2 ,14.6 ,12.5 ,17.5 
2002/11/4,7:10:00,19.4 ,53.1 ,14.6 ,12.6 ,17.6 
2002/11/4,7:20:00,19.4 ,53.0 ,14.6 ,12.6 ,17.6 
2002/11/4,7:30:00,19.5 ,52.9 ,14.6 ,12.7 ,17.6 
2002/11/4,7:40:00,19.5 ,52.8 ,14.6 ,12.7 ,17.5 
2002/11/4,7:50:00,19.5 ,52.7 ,14.6 ,12.8 ,17.5 
2002/11/4,8:00:00,19.6 ,52.6 ,14.6 ,11.4 ,17.6 
2002/11/4,8:10:00,19.6 ,52.6 ,14.6 ,11.5 ,17.7 
2002/11/4,8:20:00,19.6 ,52.5 ,14.5 ,11.5 ,17.6 